Time,TemperatureF,DewpointF,PressureIn,WindDirection,WindDirectionDegrees,WindSpeedMPH,WindSpeedGustMPH,Humidity,HourlyPrecipIn,Conditions,Clouds,dailyrainin,SoftwareType,DateUTC
2013-02-16 01:00:00,38.0,35.0,-100.00,North,0,3.0,12.0,88,-99.99,,,-99.99,,2013-02-16 06:00:00,
2013-02-16 01:22:00,38.0,35.0,-100.00,North,0,3.0,12.0,88,-99.99,,,-99.99,,2013-02-16 06:22:00,
2013-02-16 01:32:00,38.0,35.0,-100.00,North,0,3.0,12.0,88,-99.99,,,-99.99,,2013-02-16 06:32:00,
2013-02-16 01:42:00,38.0,35.0,-100.00,North,0,3.0,12.0,88,-99.99,,,-99.99,,2013-02-16 06:42:00,
2013-02-16 01:52:00,38.0,35.0,-100.00,North,0,3.0,12.0,88,-99.99,,,-99.99,,2013-02-16 06:52:00,
2013-02-16 02:00:00,37.0,35.0,-100.00,North,353,5.0,9.0,91,-99.99,,,-99.99,,2013-02-16 07:00:00,
2013-02-16 02:22:00,37.0,35.0,-100.00,North,353,5.0,9.0,91,-99.99,,,-99.99,,2013-02-16 07:22:00,
2013-02-16 02:32:00,37.0,35.0,-100.00,North,353,5.0,9.0,91,-99.99,,,-99.99,,2013-02-16 07:32:00,
2013-02-16 02:42:00,37.0,35.0,-100.00,North,353,5.0,9.0,91,-99.99,,,-99.99,,2013-02-16 07:42:00,
2013-02-16 02:53:00,37.0,35.0,-100.00,North,353,5.0,9.0,91,-99.99,,,-99.99,,2013-02-16 07:53:00,
2013-02-16 03:00:00,36.0,34.0,-100.00,NW,324,4.0,13.0,90,-99.99,,,-99.99,,2013-02-16 08:00:00,
2013-02-16 03:22:00,36.0,34.0,-100.00,NW,324,4.0,13.0,90,-99.99,,,-99.99,,2013-02-16 08:22:00,
2013-02-16 03:32:00,36.0,34.0,-100.00,NW,324,4.0,13.0,90,-99.99,,,-99.99,,2013-02-16 08:32:00,
2013-02-16 03:42:00,36.0,34.0,-100.00,NW,324,4.0,13.0,90,-99.99,,,-99.99,,2013-02-16 08:42:00,
2013-02-16 03:52:00,36.0,34.0,-100.00,NW,324,4.0,13.0,90,-99.99,,,-99.99,,2013-02-16 08:52:00,
2013-02-16 04:00:00,36.0,34.0,-100.00,NW,308,5.0,9.0,90,-99.99,,,-99.99,,2013-02-16 09:00:00,
2013-02-16 04:21:00,36.0,34.0,-100.00,NW,308,5.0,9.0,90,-99.99,,,-99.99,,2013-02-16 09:21:00,
2013-02-16 04:32:00,36.0,34.0,-100.00,NW,308,5.0,9.0,90,-99.99,,,-99.99,,2013-02-16 09:32:00,
2013-02-16 04:42:00,36.0,34.0,-100.00,NW,308,5.0,9.0,90,-99.99,,,-99.99,,2013-02-16 09:42:00,
2013-02-16 04:52:00,36.0,34.0,-100.00,NW,308,5.0,9.0,90,-99.99,,,-99.99,,2013-02-16 09:52:00,
2013-02-16 05:00:00,36.0,33.0,-100.00,NNE,13,5.0,9.0,89,-99.99,,,-99.99,,2013-02-16 10:00:00,
2013-02-16 05:21:00,36.0,33.0,-100.00,NNE,13,5.0,9.0,89,-99.99,,,-99.99,,2013-02-16 10:21:00,
2013-02-16 05:32:00,36.0,33.0,-100.00,NNE,13,5.0,9.0,89,-99.99,,,-99.99,,2013-02-16 10:32:00,
2013-02-16 05:42:00,36.0,33.0,-100.00,NNE,13,5.0,9.0,89,-99.99,,,-99.99,,2013-02-16 10:42:00,
2013-02-16 05:52:00,36.0,33.0,-100.00,NNE,13,5.0,9.0,89,-99.99,,,-99.99,,2013-02-16 10:52:00,
2013-02-16 06:00:00,36.0,33.0,-100.00,North,8,5.0,7.0,90,-99.99,,,-99.99,,2013-02-16 11:00:00,
2013-02-16 06:22:00,36.0,33.0,-100.00,North,8,5.0,7.0,90,-99.99,,,-99.99,,2013-02-16 11:22:00,
2013-02-16 06:32:00,36.0,33.0,-100.00,North,8,5.0,7.0,90,-99.99,,,-99.99,,2013-02-16 11:32:00,
2013-02-16 06:42:00,36.0,33.0,-100.00,North,8,5.0,7.0,90,-99.99,,,-99.99,,2013-02-16 11:42:00,
2013-02-16 06:52:00,36.0,33.0,-100.00,North,8,5.0,7.0,90,-99.99,,,-99.99,,2013-02-16 11:52:00,
2013-02-16 07:00:00,35.0,33.0,-100.00,NNW,334,1.0,7.0,91,-99.99,,,-99.99,,2013-02-16 12:00:00,
2013-02-16 07:32:00,35.0,33.0,-100.00,NNW,334,1.0,7.0,91,-99.99,,,-99.99,,2013-02-16 12:32:00,
2013-02-16 07:42:00,35.0,33.0,-100.00,NNW,334,1.0,7.0,91,-99.99,,,-99.99,,2013-02-16 12:42:00,
2013-02-16 07:52:00,35.0,33.0,-100.00,NNW,334,1.0,7.0,91,-99.99,,,-99.99,,2013-02-16 12:52:00,
2013-02-16 08:00:00,36.0,33.0,-100.00,NE,36,5.0,9.0,90,-99.99,,,-99.99,,2013-02-16 13:00:00,
2013-02-16 08:22:00,36.0,33.0,-100.00,NE,36,5.0,9.0,90,-99.99,,,-99.99,,2013-02-16 13:22:00,
2013-02-16 08:32:00,36.0,33.0,-100.00,NE,36,5.0,9.0,90,-99.99,,,-99.99,,2013-02-16 13:32:00,
2013-02-16 08:42:00,36.0,33.0,-100.00,NE,36,5.0,9.0,90,-99.99,,,-99.99,,2013-02-16 13:42:00,
2013-02-16 08:52:00,36.0,33.0,-100.00,NE,36,5.0,9.0,90,-99.99,,,-99.99,,2013-02-16 13:52:00,
2013-02-16 09:00:00,36.0,33.0,-100.00,NNE,30,8.0,11.0,89,-99.99,,,-99.99,,2013-02-16 14:00:00,
2013-02-16 09:21:00,36.0,33.0,-100.00,NNE,30,8.0,11.0,89,-99.99,,,-99.99,,2013-02-16 14:21:00,
2013-02-16 09:32:00,36.0,33.0,-100.00,NNE,30,8.0,11.0,89,-99.99,,,-99.99,,2013-02-16 14:32:00,
2013-02-16 09:42:00,36.0,33.0,-100.00,NNE,30,8.0,11.0,89,-99.99,,,-99.99,,2013-02-16 14:42:00,
2013-02-16 09:52:00,36.0,33.0,-100.00,NNE,30,8.0,11.0,89,-99.99,,,-99.99,,2013-02-16 14:52:00,
2013-02-16 10:00:00,36.0,32.0,-100.00,NNE,29,2.0,13.0,85,-99.99,,,-99.99,,2013-02-16 15:00:00,
2013-02-16 10:22:00,36.0,32.0,-100.00,NNE,29,2.0,13.0,85,-99.99,,,-99.99,,2013-02-16 15:22:00,
2013-02-16 10:32:00,36.0,32.0,-100.00,NNE,29,2.0,13.0,85,-99.99,,,-99.99,,2013-02-16 15:32:00,
2013-02-16 10:42:00,36.0,32.0,-100.00,NNE,29,2.0,13.0,85,-99.99,,,-99.99,,2013-02-16 15:42:00,
2013-02-16 10:52:00,36.0,32.0,-100.00,NNE,29,2.0,13.0,85,-99.99,,,-99.99,,2013-02-16 15:52:00,
2013-02-16 11:00:00,38.0,29.0,-100.00,NE,39,7.0,13.0,71,-99.99,,,-99.99,,2013-02-16 16:00:00,
2013-02-16 11:22:00,38.0,29.0,-100.00,NE,39,7.0,13.0,71,-99.99,,,-99.99,,2013-02-16 16:22:00,
2013-02-16 11:32:00,38.0,29.0,-100.00,NE,39,7.0,13.0,71,-99.99,,,-99.99,,2013-02-16 16:32:00,
2013-02-16 11:42:00,38.0,29.0,-100.00,NE,39,7.0,13.0,71,-99.99,,,-99.99,,2013-02-16 16:42:00,
2013-02-16 11:52:00,38.0,29.0,-100.00,NE,39,7.0,13.0,71,-99.99,,,-99.99,,2013-02-16 16:52:00,
2013-02-16 12:00:00,40.0,27.0,-100.00,North,350,6.0,15.0,62,-99.99,,,-99.99,,2013-02-16 17:00:00,
2013-02-16 12:22:00,40.0,27.0,-100.00,North,350,6.0,15.0,62,-99.99,,,-99.99,,2013-02-16 17:22:00,
2013-02-16 12:32:00,40.0,27.0,-100.00,North,350,6.0,15.0,62,-99.99,,,-99.99,,2013-02-16 17:32:00,
2013-02-16 12:42:00,40.0,27.0,-100.00,North,350,6.0,15.0,62,-99.99,,,-99.99,,2013-02-16 17:42:00,
2013-02-16 12:52:00,40.0,27.0,-100.00,North,350,6.0,15.0,62,-99.99,,,-99.99,,2013-02-16 17:52:00,
2013-02-16 13:00:00,41.0,27.0,-100.00,NNE,13,6.0,14.0,57,-99.99,,,-99.99,,2013-02-16 18:00:00,
2013-02-16 13:22:00,41.0,27.0,-100.00,NNE,13,6.0,14.0,57,-99.99,,,-99.99,,2013-02-16 18:22:00,
2013-02-16 13:33:00,41.0,27.0,-100.00,NNE,13,6.0,14.0,57,-99.99,,,-99.99,,2013-02-16 18:33:00,
2013-02-16 13:42:00,41.0,27.0,-100.00,NNE,13,6.0,14.0,57,-99.99,,,-99.99,,2013-02-16 18:42:00,
2013-02-16 13:52:00,41.0,27.0,-100.00,NNE,13,6.0,14.0,57,-99.99,,,-99.99,,2013-02-16 18:52:00,
2013-02-16 14:00:00,40.0,25.0,-100.00,North,9,6.0,15.0,55,-99.99,,,-99.99,,2013-02-16 19:00:00,
2013-02-16 14:22:00,40.0,25.0,-100.00,North,9,6.0,15.0,55,-99.99,,,-99.99,,2013-02-16 19:22:00,
2013-02-16 14:32:00,40.0,25.0,-100.00,North,9,6.0,15.0,55,-99.99,,,-99.99,,2013-02-16 19:32:00,
2013-02-16 14:42:00,40.0,25.0,-100.00,North,9,6.0,15.0,55,-99.99,,,-99.99,,2013-02-16 19:42:00,
2013-02-16 14:52:00,40.0,25.0,-100.00,North,9,6.0,15.0,55,-99.99,,,-99.99,,2013-02-16 19:52:00,
2013-02-16 15:00:00,39.0,25.0,-100.00,NNE,12,5.0,12.0,57,-99.99,,,-99.99,,2013-02-16 20:00:00,
2013-02-16 15:22:00,39.0,25.0,-100.00,NNE,12,5.0,12.0,57,-99.99,,,-99.99,,2013-02-16 20:22:00,
2013-02-16 15:32:00,39.0,25.0,-100.00,NNE,12,5.0,12.0,57,-99.99,,,-99.99,,2013-02-16 20:32:00,
2013-02-16 15:42:00,39.0,25.0,-100.00,NNE,12,5.0,12.0,57,-99.99,,,-99.99,,2013-02-16 20:42:00,
2013-02-16 15:52:00,39.0,25.0,-100.00,NNE,12,5.0,12.0,57,-99.99,,,-99.99,,2013-02-16 20:52:00,
2013-02-16 16:00:00,35.0,29.0,-100.00,North,8,6.0,15.0,79,-99.99,,,-99.99,,2013-02-16 21:00:00,
2013-02-16 16:22:00,35.0,29.0,-100.00,North,8,6.0,15.0,79,-99.99,,,-99.99,,2013-02-16 21:22:00,
2013-02-16 16:32:00,35.0,29.0,-100.00,North,8,6.0,15.0,79,-99.99,,,-99.99,,2013-02-16 21:32:00,
2013-02-16 16:42:00,35.0,29.0,-100.00,North,8,6.0,15.0,79,-99.99,,,-99.99,,2013-02-16 21:42:00,
2013-02-16 16:52:00,35.0,29.0,-100.00,North,8,6.0,15.0,79,-99.99,,,-99.99,,2013-02-16 21:52:00,
2013-02-16 17:00:00,34.0,30.0,-100.00,North,354,4.0,12.0,86,-99.99,,,-99.99,,2013-02-16 22:00:00,
2013-02-16 17:22:00,34.0,30.0,-100.00,North,354,4.0,12.0,86,-99.99,,,-99.99,,2013-02-16 22:22:00,
2013-02-16 17:32:00,34.0,30.0,-100.00,North,354,4.0,12.0,86,-99.99,,,-99.99,,2013-02-16 22:32:00,
2013-02-16 17:42:00,34.0,30.0,-100.00,North,354,4.0,12.0,86,-99.99,,,-99.99,,2013-02-16 22:42:00,
2013-02-16 17:52:00,34.0,30.0,-100.00,North,354,4.0,12.0,86,-99.99,,,-99.99,,2013-02-16 22:52:00,
2013-02-16 18:00:00,32.0,30.0,-100.00,NW,325,5.0,14.0,91,-99.99,,,-99.99,,2013-02-16 23:00:00,
2013-02-16 18:21:00,32.0,30.0,-100.00,NW,325,5.0,14.0,91,-99.99,,,-99.99,,2013-02-16 23:21:00,
2013-02-16 18:32:00,32.0,30.0,-100.00,NW,325,5.0,14.0,91,-99.99,,,-99.99,,2013-02-16 23:32:00,
2013-02-16 18:42:00,32.0,30.0,-100.00,NW,325,5.0,14.0,91,-99.99,,,-99.99,,2013-02-16 23:42:00,
2013-02-16 18:52:00,32.0,30.0,-100.00,NW,325,5.0,14.0,91,-99.99,,,-99.99,,2013-02-16 23:52:00,
2013-02-16 19:00:00,32.0,30.0,-100.00,NNE,18,5.0,13.0,92,-99.99,,,-99.99,,2013-02-17 00:00:00,
2013-02-16 19:22:00,32.0,30.0,-100.00,NNE,18,5.0,13.0,92,-99.99,,,-99.99,,2013-02-17 00:22:00,
2013-02-16 19:32:00,32.0,30.0,-100.00,NNE,18,5.0,13.0,92,-99.99,,,-99.99,,2013-02-17 00:32:00,
2013-02-16 19:42:00,32.0,30.0,-100.00,NNE,18,5.0,13.0,92,-99.99,,,-99.99,,2013-02-17 00:42:00,
2013-02-16 19:52:00,32.0,30.0,-100.00,NNE,18,5.0,13.0,92,-99.99,,,-99.99,,2013-02-17 00:52:00,
2013-02-16 20:00:00,33.0,25.0,-100.00,North,3,9.0,11.0,72,-99.99,,,-99.99,,2013-02-17 01:00:00,
2013-02-16 20:21:00,33.0,25.0,-100.00,North,3,9.0,11.0,72,-99.99,,,-99.99,,2013-02-17 01:21:00,
2013-02-16 20:32:00,33.0,25.0,-100.00,North,3,9.0,11.0,72,-99.99,,,-99.99,,2013-02-17 01:32:00,
2013-02-16 20:42:00,33.0,25.0,-100.00,North,3,9.0,11.0,72,-99.99,,,-99.99,,2013-02-17 01:42:00,
2013-02-16 20:52:00,33.0,25.0,-100.00,North,3,9.0,11.0,72,-99.99,,,-99.99,,2013-02-17 01:52:00,
2013-02-16 21:00:00,33.0,22.0,-100.00,NNE,33,8.0,14.0,63,-99.99,,,-99.99,,2013-02-17 02:00:00,
2013-02-16 21:21:00,33.0,22.0,-100.00,NNE,33,8.0,14.0,63,-99.99,,,-99.99,,2013-02-17 02:21:00,
2013-02-16 21:32:00,33.0,22.0,-100.00,NNE,33,8.0,14.0,63,-99.99,,,-99.99,,2013-02-17 02:32:00,
2013-02-16 21:42:00,33.0,22.0,-100.00,NNE,33,8.0,14.0,63,-99.99,,,-99.99,,2013-02-17 02:42:00,
2013-02-16 21:52:00,33.0,22.0,-100.00,NNE,33,8.0,14.0,63,-99.99,,,-99.99,,2013-02-17 02:52:00,
2013-02-16 22:00:00,33.0,18.0,-100.00,NNE,12,7.0,16.0,54,-99.99,,,-99.99,,2013-02-17 03:00:00,
2013-02-16 22:21:00,33.0,18.0,-100.00,NNE,12,7.0,16.0,54,-99.99,,,-99.99,,2013-02-17 03:21:00,
2013-02-16 22:32:00,33.0,18.0,-100.00,NNE,12,7.0,16.0,54,-99.99,,,-99.99,,2013-02-17 03:32:00,
2013-02-16 22:42:00,33.0,18.0,-100.00,NNE,12,7.0,16.0,54,-99.99,,,-99.99,,2013-02-17 03:42:00,
2013-02-16 22:52:00,33.0,18.0,-100.00,NNE,12,7.0,16.0,54,-99.99,,,-99.99,,2013-02-17 03:52:00,
2013-02-16 23:00:00,32.0,17.0,-100.00,North,351,8.0,14.0,53,-99.99,,,-99.99,,2013-02-17 04:00:00,
2013-02-16 23:21:00,32.0,17.0,-100.00,North,351,8.0,14.0,53,-99.99,,,-99.99,,2013-02-17 04:21:00,
2013-02-16 23:32:00,32.0,17.0,-100.00,North,351,8.0,14.0,53,-99.99,,,-99.99,,2013-02-17 04:32:00,
2013-02-16 23:42:00,32.0,17.0,-100.00,North,351,8.0,14.0,53,-99.99,,,-99.99,,2013-02-17 04:42:00,
2013-02-16 23:52:00,32.0,17.0,-100.00,North,351,8.0,14.0,53,-99.99,,,-99.99,,2013-02-17 04:52:00,